Showing default

PRAETORIAN SDA_615, 65578

Orbit data source: Space-Track

PRAETORIAN SDA_615, 65578 is a payload satellite owned by SDA (US) in LEO that was launched on Wed, 10 Sep 2025 UTC via an FALCON 9 launch vehicle from the Air Force Western Test Range (AFWTR). Payload-class satellites include a variety of spacecraft equipped with specific instruments for various scientific and technological missions. These include communications satellites like Starlink; space stations such as the ISS; scientific satellites like the Hubble; Earth observation satellites from companies like Planet Labs, Umbra, and HawkEye 360; GPS; miniature CubeSats for education and research; and military/defense satellites.

Loading next visibility...
Identifier
65578, 2025-203P
Orbit
LEO
Country
Flag of USUS
Related business
Manufacturer
York Space Sys
Mission
Operational Defense Communications
Bus & Motor
S-CLASS, Unknown motor
Mass
~300 kg wet, ~300 kg dry
Launch date (UTC)
2025-09-10 (9 months ago)
Launch vehicle
FALCON 9
Launch site
Air Force Western Test Range (AFWTR)
Object type
Payload
Rocket body
Debris
Shape & HBR
Box + 4 Pan, 14.5 m
Radar Cross Section
1.244 m², Large (>1 m²)

Expand to show TLE details & history
Last TLE update: 9 hours ago

TLE from 9 hours ago
0 PRAETORIAN SDA_615
1 65578U 25203P   26171.48127051  .00000073  00000-0  54653-4 0  9995
2 65578  81.3023   7.5066 0009079 176.2694 183.8532 13.84436424 39162
Epoch: 2026-06-20T11:33Z
TLE epoch observation values (Epoch: 2026-06-20T11:33:01.772Z)
Latitude
-0.00001°
Longitude
-74.44606°
Altitude
957.697 km
Speed
7.37 km/s
True Right ascension
00h 30m 01s
True Declination
0° 00' 00"
Sunlit
Object was in daylight at epoch
Visualization orbit readout
Latitude
Unknown
Longitude
Unknown
Altitude
Unknown
Speed
Unknown
Apparent Right ascension
Unknown
Apparent Declination
Unknown
Sunlit
N/A
Visualization observer readout
Local Sidereal Time
07:15:40
Azimuth
Unknown
Elevation
Unknown
Doppler factor
Unknown
Orbital elements
Apogee altitude
952.048 km
Perigee altitude
938.75 km
Semi-major axis
7,323.536 km
Eccentricity
0.00091
Inclination
81.3023°
RAAN
7.5066°
Arg. of periapsis
176.2694°
True anomaly
183.84622°
Mean anomaly
183.8532°
Eccentric anomaly
183.84971°
Mean motion
3.46308 °/min
Orbital period
103.95 mins
BSTAR
0.000054653
Loading maneuver chart data...
Computing Atmospheric mass density...
Loading historical data...
Loading historical data...
Loading historical data...
Loading historical data...
Loading historical data...
Loading historical data...
Loading historical data...

Documentation

Showing up to 5 results
|